CW0630 Weather Reports


time (UTC)temp
F
wind
direction
speed
knots
gust
knots
rain 1hr
in
rain 24hr
in
rain mn
in
humidity
%
barometer
mb
20260905021032 73 191 5.2 5.2 0.00 0.26 0.26 94 1014.0
20260905011026 73 201 0.0 0.0 0.00 0.26 0.26 94 1013.0
20260905001013 74 178 0.0 0.0 0.01 0.26 0.26 93 1012.4
20260904231031 75 198 0.0 0.0 0.02 0.25 0.25 92 1013.9
20260904221032 76 342 0.9 0.9 0.24 0.24 0.24 89 1014.5
20260904211016 92 5 11.3 11.3 0.00 0.00 0.00 62 1012.3
20260904201025 93 178 1.7 1.7 0.00 0.00 0.00 61 1011.7
20260904191014 98 311 0.0 0.0 0.00 0.00 0.00 52 1012.7
20260904181023 97 9 0.0 1.7 0.00 0.00 0.00 55 1013.8
20260904171029 96 5 0.0 0.9 0.00 0.00 0.00 55 1014.0
20260904161016 95 5 1.7 1.7 0.00 0.00 0.00 55 1014.5
20260904151030 95 209 0.0 0.0 0.00 0.00 0.00 62 1014.8
20260904141028 91 219 0.0 0.0 0.00 0.00 0.00 66 1014.5
20260904131020 87 219 0.0 0.9 0.00 0.00 0.00 71 1014.4
20260904121038 82 200 0.0 0.0 0.00 0.00 0.00 80 1014.6
20260904111049 76 124 0.0 0.0 0.00 0.00 0.00 91 1014.4
20260904101026 76 119 0.0 0.0 0.00 0.00 0.00 88 1014.4
20260904091022 76 118 0.0 0.0 0.00 0.00 0.00 86 1014.6
20260904081014 77 119 0.0 0.0 0.00 0.00 0.00 84 1014.3
20260904071041 79 113 0.0 0.0 0.00 0.00 0.00 80 1014.0
20260904061029 82 360 1.7 1.7 0.00 0.00 0.00 79 1014.9
20260904051026 82 190 1.7 1.7 0.00 0.00 0.00 80 1014.3
20260904041025 83 166 0.0 0.9 0.00 0.00 0.00 78 1014.5
20260904031025 84 162 0.0 0.0 0.00 0.00 0.00 78 1014.8